RYR94VW EIDW-LGKR

Flight info

Callsign RYR94VW
Flight time N/A
Altitude 37000
Route ENDEQ1E ENDEQ Q36 ALAVA Z195 MALUD UL975 WAL M16 DOLAS DCT NAVPI DCT DODEN DCT NEGIX DCT DINKU M867 XERUM DCT BAVAX DCT RADIZ DCT GIMIX DCT SABAD DCT NERRA DCT RODON DCT LIMJA N732 PITAS
Aircraft B738/M-SDE3FGIJ1LRWY/SB1

Departure

Time 2026-05-04 11:53
Airport Dublin Airport (EIDW)

Arrival

Time N/A
Airport Corfu Ioannis Kapodistrias International Airport (LGKR)
Time Latitude Longitude Altitude Speed Heading
2026-05-04 11:12 53.43102 -6.24829 210 ft 0 kts 185°
2026-05-04 11:41 53.43111 -6.24827 210 ft 4 kts 185°
2026-05-04 11:41 53.43138 -6.24823 210 ft 4 kts 185°
2026-05-04 11:42 53.43164 -6.24819 210 ft 4 kts 185°
2026-05-04 11:42 53.43184 -6.24808 213 ft 4 kts 253°
2026-05-04 11:42 53.43185 -6.24775 215 ft 4 kts 275°
2026-05-04 11:42 53.43183 -6.24753 210 ft 0 kts 275°
2026-05-04 11:45 53.43184 -6.24773 215 ft 4 kts 275°
2026-05-04 11:45 53.43190 -6.24864 213 ft 11 kts 275°
2026-05-04 11:45 53.43199 -6.25029 210 ft 16 kts 275°
2026-05-04 11:46 53.43209 -6.25212 210 ft 14 kts 275°
2026-05-04 11:46 53.43190 -6.25370 212 ft 14 kts 245°
2026-05-04 11:46 53.43144 -6.25487 215 ft 13 kts 180°
2026-05-04 11:46 53.43059 -6.25435 211 ft 13 kts 156°
2026-05-04 11:47 53.42979 -6.25376 212 ft 12 kts 156°
2026-05-04 11:47 53.42918 -6.25379 212 ft 9 kts 215°
2026-05-04 11:47 53.42871 -6.25444 210 ft 9 kts 224°
2026-05-04 11:47 53.42825 -6.25519 212 ft 10 kts 224°
2026-05-04 11:48 53.42759 -6.25634 210 ft 17 kts 225°
2026-05-04 11:48 53.42663 -6.25742 210 ft 17 kts 168°
2026-05-04 11:48 53.42553 -6.25688 210 ft 16 kts 188°
2026-05-04 11:48 53.42471 -6.25805 213 ft 16 kts 225°
2026-05-04 11:49 53.42396 -6.25932 211 ft 15 kts 225°
2026-05-04 11:49 53.42325 -6.26054 213 ft 14 kts 226°
2026-05-04 11:49 53.42276 -6.26195 219 ft 15 kts 249°
2026-05-04 11:49 53.42271 -6.26384 210 ft 18 kts 276°
2026-05-04 11:50 53.42284 -6.26620 215 ft 22 kts 275°
2026-05-04 11:50 53.42299 -6.26898 210 ft 26 kts 275°
2026-05-04 11:50 53.42317 -6.27214 210 ft 29 kts 275°
2026-05-04 11:50 53.42335 -6.27549 210 ft 28 kts 275°
2026-05-04 11:51 53.42353 -6.27878 217 ft 27 kts 275°
2026-05-04 11:51 53.42370 -6.28181 210 ft 24 kts 275°
2026-05-04 11:51 53.42385 -6.28455 210 ft 23 kts 275°
2026-05-04 11:51 53.42399 -6.28716 210 ft 22 kts 275°
2026-05-04 11:52 53.42411 -6.28938 214 ft 16 kts 272°
2026-05-04 11:52 53.42374 -6.29065 210 ft 11 kts 204°
2026-05-04 11:52 53.42299 -6.29071 209 ft 11 kts 175°
2026-05-04 11:52 53.42242 -6.29021 214 ft 10 kts 107°
2026-05-04 11:53 53.42228 -6.28753 210 ft 50 kts 95°
2026-05-04 11:53 53.42175 -6.27768 213 ft 118 kts 95°
2026-05-04 11:53 53.42078 -6.26114 276 ft 164 kts 94°
2026-05-04 11:53 53.41963 -6.24210 1043 ft 161 kts 93°
2026-05-04 11:55 53.41025 -6.06961 5025 ft 259 kts 93°
2026-05-04 11:55 53.40887 -6.03894 5768 ft 267 kts 88°
2026-05-04 11:56 53.41043 -6.00777 6596 ft 271 kts 82°
2026-05-04 11:56 53.41298 -5.97630 7395 ft 274 kts 81°
2026-05-04 11:56 53.41555 -5.94448 8216 ft 277 kts 82°
2026-05-04 11:56 53.41799 -5.91221 9018 ft 281 kts 82°
2026-05-04 11:57 53.42032 -5.87941 9829 ft 285 kts 82°
2026-05-04 11:57 53.42258 -5.84627 10578 ft 288 kts 82°
2026-05-04 11:57 53.42485 -5.81266 11320 ft 292 kts 83°
2026-05-04 11:57 53.42714 -5.77866 12067 ft 295 kts 83°
2026-05-04 11:58 53.42946 -5.74430 12810 ft 299 kts 82°
2026-05-04 11:58 53.43188 -5.70849 13058 ft 321 kts 83°
2026-05-04 11:58 53.43331 -5.68711 13195 ft 332 kts 82°
2026-05-04 11:58 53.43594 -5.64772 13590 ft 346 kts 83°
2026-05-04 11:59 53.43863 -5.60715 14189 ft 353 kts 82°
2026-05-04 11:59 53.44135 -5.56612 14909 ft 354 kts 83°
2026-05-04 11:59 53.44403 -5.52518 15723 ft 353 kts 83°
2026-05-04 11:59 53.44624 -5.48394 16362 ft 358 kts 88°
2026-05-04 12:00 53.44584 -5.44199 16992 ft 362 kts 91°
2026-05-04 12:00 53.44433 -5.39960 17697 ft 364 kts 92°
2026-05-04 12:00 53.44272 -5.35709 18361 ft 368 kts 92°
2026-05-04 12:00 53.44127 -5.31400 18892 ft 372 kts 91°
2026-05-04 12:01 53.44002 -5.27077 19575 ft 371 kts 91°
2026-05-04 12:01 53.43888 -5.22734 20116 ft 375 kts 91°
2026-05-04 12:02 53.43082 -4.95989 23482 ft 389 kts 91°
2026-05-04 12:03 53.42935 -4.91447 23965 ft 391 kts 91°
2026-05-04 12:03 53.42785 -4.86882 24412 ft 393 kts 91°
2026-05-04 12:03 53.42634 -4.82306 24868 ft 394 kts 91°
2026-05-04 12:03 53.42480 -4.77705 25319 ft 396 kts 91°
2026-05-04 12:04 53.42324 -4.73085 25737 ft 398 kts 91°
2026-05-04 12:04 53.42168 -4.68502 26151 ft 400 kts 90°
2026-05-04 12:04 53.42006 -4.63777 26572 ft 402 kts 90°
2026-05-04 12:04 53.41845 -4.59156 26976 ft 403 kts 90°
2026-05-04 12:05 53.41680 -4.54457 27383 ft 405 kts 90°
2026-05-04 12:05 53.41512 -4.49733 27784 ft 407 kts 90°
2026-05-04 12:05 53.41342 -4.44987 28182 ft 409 kts 90°
2026-05-04 12:05 53.41169 -4.40225 28555 ft 410 kts 90°
2026-05-04 12:06 53.40993 -4.35446 28929 ft 412 kts 90°
2026-05-04 12:06 53.40814 -4.30633 29290 ft 414 kts 90°
2026-05-04 12:06 53.40637 -4.25919 29655 ft 416 kts 90°
2026-05-04 12:06 53.40449 -4.20968 29994 ft 418 kts 90°
2026-05-04 12:07 53.40262 -4.16099 30283 ft 419 kts 90°
2026-05-04 12:07 53.40073 -4.11216 30598 ft 420 kts 90°
2026-05-04 12:07 53.39882 -4.06320 30890 ft 421 kts 90°
2026-05-04 12:07 53.39688 -4.01425 31220 ft 421 kts 91°
2026-05-04 12:08 53.39534 -3.96547 31615 ft 418 kts 87°
2026-05-04 12:08 53.39695 -3.91721 32036 ft 413 kts 82°
2026-05-04 12:08 53.39969 -3.86939 32411 ft 412 kts 82°
2026-05-04 12:08 53.40248 -3.82171 32738 ft 411 kts 82°
2026-05-04 12:09 53.40513 -3.77398 33075 ft 411 kts 83°
2026-05-04 12:09 53.40760 -3.72646 33442 ft 409 kts 83°
2026-05-04 12:09 53.40996 -3.67904 33805 ft 407 kts 83°
2026-05-04 12:09 53.41226 -3.63182 34125 ft 407 kts 84°
2026-05-04 12:10 53.41319 -3.58435 34319 ft 410 kts 90°
2026-05-04 12:10 53.41129 -3.53646 34423 ft 414 kts 92°
2026-05-04 12:10 53.40883 -3.48821 34607 ft 415 kts 92°
2026-05-04 12:10 53.40632 -3.44003 34828 ft 416 kts 92°
2026-05-04 12:11 53.40390 -3.39162 34993 ft 417 kts 92°
2026-05-04 12:11 53.40159 -3.34307 35152 ft 419 kts 92°
2026-05-04 12:11 53.39934 -3.29433 35344 ft 420 kts 92°
2026-05-04 12:11 53.39711 -3.24553 35520 ft 421 kts 92°
2026-05-04 12:12 53.39485 -3.19651 35670 ft 423 kts 93°
2026-05-04 12:12 53.39255 -3.14735 35869 ft 424 kts 93°
2026-05-04 12:12 53.39037 -3.09809 36029 ft 425 kts 92°
2026-05-04 12:12 53.38847 -3.04856 36166 ft 427 kts 92°
2026-05-04 12:13 53.38668 -2.99889 36293 ft 429 kts 92°
2026-05-04 12:14 53.37319 -2.64697 37067 ft 436 kts 93°
2026-05-04 12:15 53.36977 -2.56308 37068 ft 433 kts 93°
2026-05-04 12:15 53.36489 -2.44598 37073 ft 430 kts 93°
2026-05-04 12:16 53.36139 -2.36321 37077 ft 428 kts 93°
2026-05-04 12:16 53.35706 -2.26386 37078 ft 427 kts 94°
2026-05-04 12:17 53.34843 -2.16539 37085 ft 428 kts 99°
2026-05-04 12:17 53.33749 -2.06711 37083 ft 430 kts 99°
2026-05-04 12:18 53.32683 -1.96827 37086 ft 433 kts 99°
2026-05-04 12:18 53.31639 -1.86874 37080 ft 436 kts 99°
2026-05-04 12:19 53.30590 -1.76870 37080 ft 438 kts 99°
2026-05-04 12:19 53.29524 -1.66803 37077 ft 440 kts 99°
2026-05-04 12:20 53.28443 -1.56714 37069 ft 442 kts 99°
2026-05-04 12:20 53.27350 -1.46615 37062 ft 442 kts 100°
2026-05-04 12:21 53.26249 -1.36513 37070 ft 441 kts 100°
2026-05-04 12:21 53.25143 -1.26436 37073 ft 441 kts 100°
2026-05-04 12:22 53.24030 -1.16377 37058 ft 440 kts 100°
2026-05-04 12:22 53.22912 -1.06348 37059 ft 439 kts 100°
2026-05-04 12:23 53.21788 -0.96344 37055 ft 438 kts 101°
2026-05-04 12:23 53.20663 -0.86370 37068 ft 437 kts 101°
2026-05-04 12:24 53.19520 -0.76410 37074 ft 437 kts 101°
2026-05-04 12:24 53.18369 -0.66445 37085 ft 438 kts 101°
2026-05-04 12:25 53.17210 -0.56471 37077 ft 439 kts 101°
2026-05-04 12:25 53.16041 -0.46483 37078 ft 439 kts 101°
2026-05-04 12:26 53.14863 -0.36481 37081 ft 440 kts 101°
2026-05-04 12:26 53.13673 -0.26465 37076 ft 441 kts 101°
2026-05-04 12:27 53.12480 -0.16500 37075 ft 442 kts 101°
2026-05-04 12:27 53.11270 -0.06464 37082 ft 442 kts 102°
2026-05-04 12:28 53.10044 0.03632 37044 ft 443 kts 102°
2026-05-04 12:28 53.08824 0.13598 37059 ft 443 kts 102°
2026-05-04 12:29 53.07586 0.23638 37064 ft 444 kts 102°
2026-05-04 12:29 53.06337 0.33689 37058 ft 444 kts 102°
2026-05-04 12:30 53.05078 0.43752 37059 ft 445 kts 102°
2026-05-04 12:30 53.03808 0.53823 37049 ft 446 kts 103°
2026-05-04 12:31 53.02528 0.63905 37066 ft 446 kts 103°
2026-05-04 12:31 53.01237 0.74008 37060 ft 448 kts 103°
2026-05-04 12:32 52.99278 0.89200 37060 ft 450 kts 103°
2026-05-04 12:33 52.97950 0.99353 37062 ft 450 kts 105°
2026-05-04 12:33 52.95975 1.09184 37058 ft 449 kts 112°
2026-05-04 12:34 52.93702 1.18842 37053 ft 450 kts 113°
2026-05-04 12:34 52.91437 1.28532 37052 ft 451 kts 112°
2026-05-04 12:35 52.89203 1.38245 37043 ft 452 kts 112°
2026-05-04 12:35 52.86976 1.47964 37048 ft 451 kts 112°